KB2FWP Weather Reports


Display with metric or nautical units.
time (UTC)temp
F
wind
direction
speed
MPH
gust
MPH
rain 1hr
in
rain 24hr
in
rain mn
in
humidity
%
barometer
mb
20260506153013 57 208 13.0 27.0 0.00 0.00 0.00 90 1011.6
20260506151513 57 189 11.0 25.0 0.00 0.00 0.00 90 1011.6
20260506150012 56 155 12.0 23.0 0.00 0.00 0.00 90 1011.5
20260506144512 57 213 14.0 24.0 0.00 0.00 0.00 90 1011.5
20260506143010 57 167 12.0 27.0 0.00 0.00 0.00 90 1011.5
20260506141508 57 190 12.0 21.0 0.00 0.00 0.00 89 1012.0
20260506140008 57 208 9.0 22.0 0.00 0.00 0.00 89 1012.0
20260506134506 57 239 14.0 22.0 0.00 0.00 0.00 90 1012.3
20260506133006 57 178 11.0 25.0 0.00 0.00 0.00 90 1012.2
20260506131506 56 182 14.0 23.0 0.00 0.00 0.00 91 1012.0
20260506130010 56 194 9.0 22.0 0.00 0.00 0.00 91 1011.9
20260506124503 56 211 12.0 24.0 0.00 0.00 0.00 90 1012.0
20260506123003 57 204 12.0 22.0 0.00 0.00 0.00 90 1012.0
20260506121502 56 235 9.0 22.0 0.00 0.00 0.00 91 1012.2
20260506120002 56 174 12.0 23.0 0.00 0.00 0.00 91 1012.2
20260506114503 56 217 12.0 24.0 0.00 0.00 0.00 91 1012.2
20260506113109 56 243 12.0 25.0 0.00 0.00 0.00 92 1012.0
20260506111600 55 200 12.0 23.0 0.00 0.00 0.00 92 1012.0
20260506104558 55 214 14.0 25.0 0.00 0.00 0.00 93 1011.9
20260506103057 55 173 13.0 23.0 0.00 0.00 0.00 93 1011.9
20260506101555 55 211 10.0 27.0 0.00 0.00 0.00 93 1011.8
20260506100055 55 161 12.0 24.0 0.00 0.00 0.00 93 1011.8
20260506094554 55 198 13.0 24.0 0.00 0.00 0.00 93 1011.8
20260506093053 55 242 12.0 24.0 0.00 0.00 0.00 93 1011.8
20260506091549 55 191 15.0 25.0 0.00 0.00 0.00 93 1011.8
20260506090047 55 175 10.0 21.0 0.00 0.00 0.00 92 1012.0
20260506084545 55 171 12.0 20.0 0.00 0.00 0.00 92 1012.1
20260506083046 55 242 12.0 25.0 0.00 0.00 0.00 92 1012.2
20260506081549 55 200 14.0 25.0 0.00 0.00 0.00 92 1012.1
20260506073036 55 191 12.0 22.0 0.00 0.00 0.00 91 1012.5
20260506071544 55 210 12.0 21.0 0.00 0.00 0.00 90 1012.6
20260506061535 56 239 13.0 22.0 0.00 0.00 0.00 90 1012.6
20260506044522 56 243 14.0 28.0 0.00 0.00 0.00 88 1012.7
20260506043017 56 192 14.0 26.0 0.00 0.00 0.00 88 1012.8
20260506041514 56 210 12.0 32.0 0.00 0.00 0.00 88 1012.8
20260506040014 57 235 12.0 25.0 0.00 0.00 0.00 87 1012.8
20260506034511 57 212 15.0 25.0 0.00 0.00 0.00 86 1012.8
20260506033008 57 189 15.0 28.0 0.00 0.00 0.00 86 1012.8
20260506031513 57 171 14.0 23.0 0.00 0.00 0.00 86 1012.7
20260506030007 57 210 13.0 23.0 0.00 0.00 0.00 86 1012.9
20260506024504 57 174 14.0 25.0 0.00 0.00 0.00 86 1013.0
20260506023002 57 195 12.0 25.0 0.00 0.00 0.00 86 1012.9
20260506021502 57 194 12.0 24.0 0.00 0.00 0.00 87 1013.1
20260506020100 57 237 11.0 25.0 0.00 0.00 0.00 86 1012.9
20260506014602 58 179 15.0 27.0 0.00 0.00 0.00 85 1012.9
20260506013101 58 198 15.0 25.0 0.00 0.00 0.00 84 1012.7
20260506011559 58 192 17.0 29.0 0.00 0.00 0.00 84 1012.6
20260506010059 59 189 14.0 24.0 0.00 0.00 0.00 83 1012.6
20260506004625 59 206 14.0 26.0 0.00 0.00 0.00 82 1012.5
20260506003056 59 184 16.0 24.0 0.00 0.00 0.00 82 1012.4
20260506001553 60 232 17.0 25.0 0.00 0.00 0.00 81 1012.1
20260506000053 59 200 17.0 26.0 0.00 0.00 0.00 82 1011.9
20260505234612 59 185 16.0 31.0 0.00 0.00 0.00 82 1011.5
20260505233051 60 186 17.0 32.0 0.00 0.00 0.00 82 1011.3
20260505231551 59 225 17.0 33.0 0.00 0.00 0.00 82 1011.2
20260505230051 60 202 15.0 28.0 0.00 0.00 0.00 82 1010.9
20260505224549 60 191 16.0 31.0 0.00 0.00 0.00 81 1010.8
20260505223059 60 185 19.0 30.0 0.00 0.00 0.00 82 1010.7
20260505221558 60 179 13.0 32.0 0.00 0.00 0.00 81 1010.8
20260505220057 60 206 16.0 32.0 0.00 0.00 0.00 80 1010.6
20260505214603 60 203 17.0 31.0 0.00 0.00 0.00 80 1010.6
20260505213047 61 201 15.0 26.0 0.00 0.00 0.00 80 1010.4
20260505211544 61 218 15.0 27.0 0.00 0.00 0.00 80 1010.2
20260505210044 60 200 18.0 29.0 0.00 0.00 0.00 80 1010.2
20260505204544 60 186 15.0 25.0 0.00 0.00 0.00 81 1010.2
20260505203044 60 198 16.0 28.0 0.00 0.00 0.00 81 1010.2
20260505201540 60 187 15.0 28.0 0.00 0.00 0.00 81 1010.4
20260505200045 60 206 12.0 26.0 0.00 0.00 0.00 81 1010.5
20260505194539 61 184 14.0 23.0 0.00 0.00 0.00 81 1010.6
20260505193036 61 184 12.0 21.0 0.00 0.00 0.00 81 1011.0
20260505191535 61 186 10.0 23.0 0.00 0.00 0.00 80 1011.1
20260505190037 61 226 15.0 23.0 0.00 0.00 0.00 80 1011.3
20260505184532 61 181 12.0 20.0 0.00 0.00 0.00 81 1011.7
20260505183042 61 235 8.0 19.0 0.00 0.00 0.00 80 1011.9
20260505181529 62 237 7.0 13.0 0.00 0.00 0.00 80 1012.1
20260505180029 63 231 5.0 11.0 0.00 0.00 0.00 78 1012.3
20260505174526 62 212 5.0 10.0 0.00 0.00 0.00 80 1012.5
20260505173024 61 180 6.0 14.0 0.00 0.00 0.00 81 1012.5
20260505171524 61 189 6.0 14.0 0.00 0.00 0.00 81 1012.6
20260505170024 60 230 4.0 16.0 0.00 0.00 0.00 84 1012.7
20260505164523 60 196 8.0 15.0 0.00 0.00 0.00 81 1012.9
20260505163021 60 192 6.0 10.0 0.00 0.00 0.00 82 1012.9
20260505161620 61 182 7.0 15.0 0.00 0.00 0.00 81 1013.0